User: anonymous   Login
Location: Ahausen
(50.4985°N, 8.2722°E)
Time: 21:01:52
(UTC+00:00)
Language:

ZACube-1 - Orbit

View from above orbital plane
View from above orbital plane
View from above satellite
View from above satellite

Ground track
Ground track

The orbit data is extracted from the following two-line orbital elements,

1 39417U 13066B   22177.48003424  .00001546  00000-0  19402-3 0  9999
2 39417  97.6366 148.5691 0058338  16.7152 343.5967 14.82374351464465
Epoch (UTC): 26 June 2022 11:31:14
Eccentricity: 0.0058338
inclination: 97.6366°
perigee height: 581 km
apogee height: 662 km
right ascension of ascending node: 148.5691°
argument of perigee: 16.7152°
revolutions per day: 14.82374351
mean anomaly at epoch: 343.5967°
orbit number at epoch: 46446

The dashed part of the orbit path shows where the satellite is in the earth's shadow,  

DLR